sat.trackr.live / text

‹ back to catalog

STARLINK-34928

NORAD 65195 · 2025-175X

PAYLOAD ACTIVE UNKNOWN

§ Identity

Operator
Country
US
Launch date
2025-08-14
Launch site
AFWTR
Launch vehicle
Mass (kg)
RCS (m²)

Purposes: comms

External: N2YO · Heavens-Above · Gunter

§ Orbital elements

Epoch: 2026-09-20T14:25:42.088512Z

Period
93.91 min
Inclination
97.2825°
Eccentricity
0.0001892
Mean motion
15.33437100 rev/d
Perigee alt
464.3 km
Apogee alt
466.9 km
Semi-major
6,843.7 km
B*
6.7197e-4
RAAN
132.5171°
Arg perigee
83.7317°
Mean anomaly
276.4141°
Rev number
6,214

§ Raw data

STARLINK-349281 65195U 25175X   26263.60118158  .00021676  00000+0  67197-3 0  99992 65195  97.2825 132.5171 0001892  83.7317 276.4141 15.33437100 62145

JSON: /api/v1/satellites/65195 · /tle

For live sub-satellite position, see the globe view (requires WebGL).

§ Visibility from observer

Set your observer location to see the next 7 days of passes ≥ 10°. The values pass through the URL so the page stays shareable.

No JS? Fill the form by hand. The geolocation button needs JavaScript.